星链-5171 (STARLINK-5171 )

导读 | 豆包AI

STARLINK-5171是美国太空探索技术公司(SpaceX)星链(Starlink)卫星互联网项目中的一颗低轨通信卫星,于2022年10月20日发射入轨。星链项目计划在近地轨道部署数万颗卫星,旨在为全球偏远、欠发达地区提供高速低延迟宽带互联网服务,STARLINK-5171是该星座组网进程中的一员,助力实现全球无缝网络覆盖目标。

基本信息
目录编号:
54077
目录名称:
STARLINK-5171
国际标识:
2022-136AC
轨道中心:
EARTH
卫星名称:
星链-5171
卫星全名:
星链-5171 (STARLINK-5171 )
卫星状态:
在轨 (已飞行1242 天)
发射日期:
2022-10-20 UTC
国别 :
美国 (US)
星等 :
--
轨道信息
数据来源 国际轨道数据
星历时间: 2026-03-15T05:31:55+0800
12小时前
查看轨道信息
半长轴: 6917.896km
偏心率: 0.0001306
轨道倾角: 53.217°
近地点辐角 90.012°
升交点赤经 296.381°
平近点角 270.103°
近地点: 538.855km
远地点: 540.663km
周期: 95.438分钟
每日圈数: 15.088349
详细信息
固有亮度:
5
最大亮度:
2.5
卫星平台:
Starlink v1.5
覆盖范围:
全球
运营商:
太空探索技术公司
运营商所在国:
美国
制造商(研发单位):
太空探索技术公司
制造商所在国:
美国
使用方式:
暂无
卫星简介
星链(Starlink)计划是由太空探索技术公司(SpaceX)提出的一个巨型低轨卫星互联网星座项目,计划在2019年至2024年间在太空搭建由约1.2万颗卫星组成的“星链”网络,其中1584颗将部署在地球上空550千米处的近地轨道,并从2020年开始工作。该卫星仍在工作。
2D轨道图
3D轨道图
轨道高度分析图
轨道倾角分析图
轨道综合分析图
查看轨道综合分析图